| time (UTC) | temp C | wind direction | speed KPH | gust KPH | rain 1hr cm | rain 24hr cm | rain mn cm | humidity % | barometer mb |
| 20260508075403 | 19 | 220 | 4.8 | 11.3 | 0.00 | 0.00 | 0.00 | 54 | 1026.8 |
| 20260508075103 | 19 | 233 | 4.8 | 12.9 | 0.00 | 0.00 | 0.00 | 53 | 1027.2 |
| 20260508074803 | 19 | 237 | 4.8 | 12.9 | 0.00 | 0.00 | 0.00 | 53 | 1027.1 |
| 20260508074503 | 19 | 238 | 6.4 | 14.5 | 0.00 | 0.00 | 0.00 | 53 | 1026.9 |
| 20260508074204 | 19 | 233 | 6.4 | 14.5 | 0.00 | 0.00 | 0.00 | 53 | 1027.2 |
| 20260508073903 | 19 | 228 | 6.4 | 14.5 | 0.00 | 0.00 | 0.00 | 52 | 1027.1 |
| 20260508073604 | 19 | 228 | 4.8 | 12.9 | 0.00 | 0.00 | 0.00 | 52 | 1027.1 |
| 20260508073303 | 19 | 214 | 4.8 | 11.3 | 0.00 | 0.00 | 0.00 | 51 | 1027.0 |
| 20260508073218 | 19 | 214 | 4.8 | 11.3 | 0.00 | 0.00 | 0.00 | 50 | 1026.9 |
| 20260508072917 | 19 | 222 | 4.8 | 11.3 | 0.00 | 0.00 | 0.00 | 51 | 1027.3 |
| 20260508072403 | 19 | 219 | 4.8 | 11.3 | 0.00 | 0.00 | 0.00 | 49 | 1027.2 |
| 20260508072104 | 19 | 216 | 4.8 | 11.3 | 0.00 | 0.00 | 0.00 | 48 | 1027.3 |
| 20260508071803 | 19 | 206 | 4.8 | 11.3 | 0.00 | 0.00 | 0.00 | 46 | 1027.2 |
| 20260508071503 | 20 | 211 | 3.2 | 9.7 | 0.00 | 0.00 | 0.00 | 46 | 1027.2 |
| 20260508071203 | 20 | 202 | 3.2 | 9.7 | 0.00 | 0.00 | 0.00 | 46 | 1027.5 |
| 20260508070903 | 20 | 220 | 4.8 | 11.3 | 0.00 | 0.00 | 0.00 | 45 | 1027.1 |
| 20260508070818 | 20 | 223 | 4.8 | 11.3 | 0.00 | 0.00 | 0.00 | 45 | 1027.3 |
| 20260508070303 | 20 | 226 | 4.8 | 11.3 | 0.00 | 0.00 | 0.00 | 44 | 1027.5 |
| 20260508070004 | 20 | 228 | 4.8 | 11.3 | 0.00 | 0.00 | 0.00 | 43 | 1027.4 |
| 20260508065917 | 20 | 229 | 4.8 | 9.7 | 0.00 | 0.00 | 0.00 | 42 | 1027.5 |
| 20260508065403 | 20 | 234 | 4.8 | 9.7 | 0.00 | 0.00 | 0.00 | 42 | 1027.7 |
| 20260508065103 | 20 | 233 | 4.8 | 9.7 | 0.00 | 0.00 | 0.00 | 41 | 1027.7 |
| 20260508064803 | 20 | 233 | 4.8 | 9.7 | 0.00 | 0.00 | 0.00 | 41 | 1027.6 |
| 20260508064503 | 20 | 231 | 4.8 | 9.7 | 0.00 | 0.00 | 0.00 | 40 | 1027.5 |
| 20260508064203 | 20 | 229 | 4.8 | 9.7 | 0.00 | 0.00 | 0.00 | 40 | 1027.3 |
| 20260508063903 | 20 | 231 | 4.8 | 9.7 | 0.00 | 0.00 | 0.00 | 40 | 1027.4 |
| 20260508063603 | 20 | 228 | 6.4 | 9.7 | 0.00 | 0.00 | 0.00 | 39 | 1027.2 |
| 20260508063303 | 20 | 232 | 6.4 | 9.7 | 0.00 | 0.00 | 0.00 | 39 | 1027.2 |
| 20260508063003 | 20 | 231 | 4.8 | 9.7 | 0.00 | 0.00 | 0.00 | 38 | 1027.3 |
| 20260508062917 | 20 | 233 | 4.8 | 9.7 | 0.00 | 0.00 | 0.00 | 38 | 1027.2 |
| 20260508062404 | 20 | 238 | 4.8 | 12.9 | 0.00 | 0.00 | 0.00 | 38 | 1027.1 |
| 20260508062103 | 20 | 243 | 6.4 | 12.9 | 0.00 | 0.00 | 0.00 | 37 | 1027.1 |
| 20260508062016 | 20 | 244 | 6.4 | 12.9 | 0.00 | 0.00 | 0.00 | 37 | 1027.1 |
| 20260508061503 | 20 | 245 | 6.4 | 12.9 | 0.00 | 0.00 | 0.00 | 37 | 1027.1 |
| 20260508061203 | 20 | 243 | 6.4 | 12.9 | 0.00 | 0.00 | 0.00 | 38 | 1027.0 |
| 20260508060903 | 20 | 242 | 4.8 | 11.3 | 0.00 | 0.00 | 0.00 | 38 | 1027.1 |
| 20260508060603 | 20 | 240 | 4.8 | 9.7 | 0.00 | 0.00 | 0.00 | 39 | 1026.9 |
| 20260508060303 | 20 | 243 | 3.2 | 9.7 | 0.00 | 0.00 | 0.00 | 39 | 1027.0 |
| 20260508060003 | 20 | 244 | 1.6 | 9.7 | 0.00 | 0.00 | 0.00 | 39 | 1026.8 |
| 20260508055917 | 20 | 246 | 1.6 | 6.4 | 0.00 | 0.00 | 0.00 | 39 | 1026.8 |
| 20260508055616 | 20 | 247 | 1.6 | 4.8 | 0.00 | 0.00 | 0.00 | 40 | 1026.7 |
| 20260508055316 | 20 | 248 | 1.6 | 4.8 | 0.00 | 0.00 | 0.00 | 42 | 1026.4 |
| 20260508055018 | 20 | 247 | 1.6 | 4.8 | 0.00 | 0.00 | 0.00 | 42 | 1026.2 |
| 20260508054504 | 20 | 244 | 1.6 | 4.8 | 0.00 | 0.00 | 0.00 | 44 | 1025.9 |
| 20260508054203 | 20 | 245 | 1.6 | 4.8 | 0.00 | 0.00 | 0.00 | 44 | 1025.9 |
| 20260508053903 | 20 | 243 | 0.0 | 4.8 | 0.00 | 0.00 | 0.00 | 44 | 1026.1 |
| 20260508053817 | 20 | 241 | 0.0 | 3.2 | 0.00 | 0.00 | 0.00 | 45 | 1025.9 |
| 20260508053517 | 20 | 236 | 0.0 | 1.6 | 0.00 | 0.00 | 0.00 | 45 | 1025.9 |
| 20260508053004 | 20 | 230 | 0.0 | 1.6 | 0.00 | 0.00 | 0.00 | 46 | 1025.7 |
| 20260508052703 | 20 | 230 | 0.0 | 1.6 | 0.00 | 0.00 | 0.00 | 46 | 1025.6 |
| 20260508052403 | 20 | 228 | 0.0 | 1.6 | 0.00 | 0.00 | 0.00 | 45 | 1025.8 |
| 20260508052103 | 19 | 228 | 0.0 | 1.6 | 0.00 | 0.00 | 0.00 | 46 | 1025.5 |
| 20260508051803 | 19 | 227 | 0.0 | 1.6 | 0.00 | 0.00 | 0.00 | 46 | 1025.5 |
| 20260508051718 | 19 | 227 | 0.0 | 1.6 | 0.00 | 0.00 | 0.00 | 46 | 1025.5 |
| 20260508051203 | 19 | 232 | 0.0 | 1.6 | 0.00 | 0.00 | 0.00 | 46 | 1025.4 |
| 20260508051117 | 19 | 233 | 0.0 | 1.6 | 0.00 | 0.00 | 0.00 | 47 | 1025.2 |
| 20260508050603 | 19 | 234 | 1.6 | 1.6 | 0.00 | 0.00 | 0.00 | 47 | 1025.3 |
| 20260508050303 | 19 | 234 | 1.6 | 1.6 | 0.00 | 0.00 | 0.00 | 48 | 1025.3 |
| 20260508050003 | 19 | 260 | 1.6 | 3.2 | 0.00 | 0.00 | 0.00 | 47 | 1025.2 |
| 20260508045703 | 19 | 310 | 1.6 | 3.2 | 0.00 | 0.00 | 0.00 | 48 | 1025.3 |
| 20260508045403 | 19 | 350 | 1.6 | 3.2 | 0.00 | 0.00 | 0.00 | 48 | 1025.2 |
| 20260508045103 | 19 | 31 | 0.0 | 1.6 | 0.00 | 0.00 | 0.00 | 48 | 1025.5 |
| 20260508044803 | 19 | 31 | 0.0 | 1.6 | 0.00 | 0.00 | 0.00 | 48 | 1025.1 |
| 20260508044503 | 19 | 31 | 0.0 | 1.6 | 0.00 | 0.00 | 0.00 | 48 | 1025.2 |
| 20260508044203 | 19 | 31 | 0.0 | 1.6 | 0.00 | 0.00 | 0.00 | 51 | 1025.3 |
| 20260508043903 | 18 | 32 | 0.0 | 1.6 | 0.00 | 0.00 | 0.00 | 50 | 1025.3 |
| 20260508043603 | 19 | 32 | 0.0 | 1.6 | 0.00 | 0.00 | 0.00 | 51 | 1025.1 |
| 20260508043303 | 18 | 32 | 0.0 | 1.6 | 0.00 | 0.00 | 0.00 | 51 | 1025.2 |
| 20260508043003 | 18 | 32 | 0.0 | 1.6 | 0.00 | 0.00 | 0.00 | 51 | 1025.0 |
| 20260508042703 | 18 | 32 | 0.0 | 1.6 | 0.00 | 0.00 | 0.00 | 51 | 1025.0 |
| 20260508042403 | 18 | 33 | 0.0 | 1.6 | 0.00 | 0.00 | 0.00 | 51 | 1024.9 |
| 20260508042103 | 18 | 33 | 0.0 | 1.6 | 0.00 | 0.00 | 0.00 | 51 | 1024.7 |
| 20260508041804 | 18 | 33 | 0.0 | 1.6 | 0.00 | 0.00 | 0.00 | 51 | 1024.5 |
| 20260508041717 | 18 | 33 | 0.0 | 1.6 | 0.00 | 0.00 | 0.00 | 51 | 1024.7 |
| 20260508041203 | 18 | 33 | 0.0 | 1.6 | 0.00 | 0.00 | 0.00 | 50 | 1024.7 |
| 20260508041117 | 18 | 32 | 0.0 | 1.6 | 0.00 | 0.00 | 0.00 | 50 | 1024.6 |
| 20260508040603 | 19 | 32 | 0.0 | 1.6 | 0.00 | 0.00 | 0.00 | 51 | 1024.6 |
| 20260508040516 | 19 | 32 | 0.0 | 1.6 | 0.00 | 0.00 | 0.00 | 51 | 1024.5 |
| 20260508040003 | 18 | 32 | 0.0 | 1.6 | 0.00 | 0.00 | 0.00 | 50 | 1024.4 |
| 20260508035703 | 18 | 32 | 0.0 | 1.6 | 0.00 | 0.00 | 0.00 | 51 | 1024.4 |
| 20260508035403 | 18 | 32 | 0.0 | 1.6 | 0.00 | 0.00 | 0.00 | 50 | 1024.5 |
| 20260508035103 | 18 | 31 | 1.6 | 3.2 | 0.00 | 0.00 | 0.00 | 51 | 1024.5 |
| 20260508034803 | 18 | 31 | 1.6 | 3.2 | 0.00 | 0.00 | 0.00 | 51 | 1024.3 |
| 20260508034503 | 18 | 31 | 1.6 | 3.2 | 0.00 | 0.00 | 0.00 | 51 | 1023.9 |
| 20260508034203 | 18 | 31 | 0.0 | 3.2 | 0.00 | 0.00 | 0.00 | 51 | 1024.1 |
| 20260508033903 | 18 | 38 | 0.0 | 3.2 | 0.00 | 0.00 | 0.00 | 51 | 1024.3 |
| 20260508033817 | 18 | 38 | 0.0 | 3.2 | 0.00 | 0.00 | 0.00 | 51 | 1024.4 |
| 20260508033303 | 18 | 41 | 0.0 | 3.2 | 0.00 | 0.00 | 0.00 | 52 | 1024.3 |
| 20260508033218 | 18 | 41 | 1.6 | 3.2 | 0.00 | 0.00 | 0.00 | 52 | 1024.3 |
| 20260508032703 | 18 | 41 | 1.6 | 1.6 | 0.00 | 0.00 | 0.00 | 53 | 1024.2 |
| 20260508032403 | 18 | 41 | 1.6 | 1.6 | 0.00 | 0.00 | 0.00 | 53 | 1024.1 |
| 20260508032103 | 18 | 41 | 1.6 | 1.6 | 0.00 | 0.00 | 0.00 | 53 | 1024.2 |
| 20260508031803 | 18 | 41 | 0.0 | 1.6 | 0.00 | 0.00 | 0.00 | 53 | 1024.0 |
| 20260508031503 | 18 | 42 | 0.0 | 1.6 | 0.00 | 0.00 | 0.00 | 53 | 1024.4 |
| 20260508031203 | 18 | 43 | 0.0 | 1.6 | 0.00 | 0.00 | 0.00 | 54 | 1024.2 |
| 20260508030903 | 18 | 44 | 0.0 | 1.6 | 0.00 | 0.00 | 0.00 | 54 | 1024.2 |
| 20260508030603 | 18 | 44 | 1.6 | 1.6 | 0.00 | 0.00 | 0.00 | 54 | 1024.2 |
| 20260508030303 | 18 | 43 | 1.6 | 1.6 | 0.00 | 0.00 | 0.00 | 54 | 1024.2 |
| 20260508030003 | 18 | 43 | 1.6 | 1.6 | 0.00 | 0.00 | 0.00 | 53 | 1024.2 |
| 20260508025918 | 18 | 42 | 1.6 | 1.6 | 0.00 | 0.00 | 0.00 | 53 | 1024.2 |
| 20260508025403 | 18 | 37 | 0.0 | 1.6 | 0.00 | 0.00 | 0.00 | 52 | 1024.2 |
| 20260508025103 | 18 | 35 | 0.0 | 1.6 | 0.00 | 0.00 | 0.00 | 52 | 1024.4 |
| 20260508024803 | 18 | 34 | 0.0 | 1.6 | 0.00 | 0.00 | 0.00 | 52 | 1024.2 |
| 20260508024503 | 18 | 35 | 0.0 | 1.6 | 0.00 | 0.00 | 0.00 | 52 | 1024.2 |
| 20260508024203 | 18 | 35 | 0.0 | 1.6 | 0.00 | 0.00 | 0.00 | 52 | 1024.4 |
| 20260508023903 | 18 | 36 | 0.0 | 1.6 | 0.00 | 0.00 | 0.00 | 53 | 1024.6 |
| 20260508023603 | 18 | 36 | 0.0 | 1.6 | 0.00 | 0.00 | 0.00 | 53 | 1024.4 |
| 20260508023518 | 18 | 36 | 1.6 | 3.2 | 0.00 | 0.00 | 0.00 | 53 | 1024.2 |
| 20260508023218 | 18 | 32 | 1.6 | 3.2 | 0.00 | 0.00 | 0.00 | 53 | 1024.2 |
| 20260508022703 | 18 | 28 | 1.6 | 3.2 | 0.00 | 0.00 | 0.00 | 53 | 1024.5 |
| 20260508022403 | 18 | 26 | 0.0 | 1.6 | 0.00 | 0.00 | 0.00 | 53 | 1024.3 |
| 20260508022103 | 18 | 28 | 0.0 | 3.2 | 0.00 | 0.00 | 0.00 | 54 | 1024.3 |
| 20260508021803 | 18 | 27 | 0.0 | 3.2 | 0.00 | 0.00 | 0.00 | 54 | 1024.4 |
| 20260508021503 | 18 | 27 | 0.0 | 3.2 | 0.00 | 0.00 | 0.00 | 54 | 1024.2 |
| 20260508021203 | 18 | 27 | 0.0 | 3.2 | 0.00 | 0.00 | 0.00 | 55 | 1024.4 |
| 20260508020903 | 18 | 27 | 1.6 | 3.2 | 0.00 | 0.00 | 0.00 | 55 | 1024.5 |
| 20260508020603 | 18 | 21 | 1.6 | 3.2 | 0.00 | 0.00 | 0.00 | 55 | 1024.4 |
| 20260508020518 | 18 | 20 | 1.6 | 3.2 | 0.00 | 0.00 | 0.00 | 55 | 1024.4 |
| 20260508020003 | 18 | 30 | 1.6 | 3.2 | 0.00 | 0.00 | 0.00 | 56 | 1024.5 |
| 20260508015917 | 18 | 33 | 1.6 | 3.2 | 0.00 | 0.00 | 0.00 | 56 | 1024.5 |
| 20260508015403 | 18 | 67 | 1.6 | 3.2 | 0.00 | 0.00 | 0.00 | 56 | 1024.4 |
| 20260508015103 | 18 | 69 | 1.6 | 3.2 | 0.00 | 0.00 | 0.00 | 57 | 1024.4 |
| 20260508014804 | 18 | 46 | 0.0 | 3.2 | 0.00 | 0.00 | 0.00 | 57 | 1024.3 |
| 20260508014716 | 18 | 350 | 0.0 | 1.6 | 0.00 | 0.00 | 0.00 | 57 | 1024.5 |
| 20260508014203 | 18 | 302 | 0.0 | 1.6 | 0.00 | 0.00 | 0.00 | 58 | 1024.5 |
| 20260508014118 | 18 | 299 | 0.0 | 1.6 | 0.00 | 0.00 | 0.00 | 58 | 1024.3 |
| 20260508013818 | 18 | 298 | 0.0 | 1.6 | 0.00 | 0.00 | 0.00 | 58 | 1024.5 |
| 20260508013304 | 18 | 296 | 0.0 | 1.6 | 0.00 | 0.00 | 0.00 | 58 | 1024.7 |
| 20260508013003 | 18 | 292 | 0.0 | 1.6 | 0.00 | 0.00 | 0.00 | 58 | 1024.8 |
| 20260508012703 | 18 | 292 | 0.0 | 1.6 | 0.00 | 0.00 | 0.00 | 58 | 1024.4 |
| 20260508012403 | 18 | 292 | 0.0 | 1.6 | 0.00 | 0.00 | 0.00 | 58 | 1024.9 |
| 20260508012103 | 18 | 292 | 0.0 | 1.6 | 0.00 | 0.00 | 0.00 | 58 | 1024.9 |
| 20260508011804 | 18 | 0 | 0.0 | 0.0 | 0.00 | 0.00 | 0.00 | 58 | 1024.7 |
| 20260508011503 | 18 | 0 | 0.0 | 0.0 | 0.00 | 0.00 | 0.00 | 58 | 1024.7 |
| 20260508011204 | 18 | 292 | 0.0 | 1.6 | 0.00 | 0.00 | 0.00 | 58 | 1024.8 |
| 20260508011118 | 18 | 292 | 0.0 | 1.6 | 0.00 | 0.00 | 0.00 | 58 | 1025.0 |
| 20260508010603 | 18 | 292 | 0.0 | 1.6 | 0.00 | 0.00 | 0.00 | 58 | 1025.0 |
| 20260508010303 | 18 | 0 | 0.0 | 0.0 | 0.00 | 0.00 | 0.00 | 58 | 1025.1 |
| 20260508010003 | 18 | 0 | 0.0 | 0.0 | 0.00 | 0.00 | 0.00 | 59 | 1025.1 |
| 20260508005703 | 18 | 0 | 0.0 | 0.0 | 0.00 | 0.00 | 0.00 | 60 | 1024.9 |
| 20260508005403 | 18 | 0 | 0.0 | 0.0 | 0.00 | 0.00 | 0.00 | 59 | 1025.0 |
| 20260508005103 | 18 | 0 | 0.0 | 0.0 | 0.00 | 0.00 | 0.00 | 59 | 1025.1 |
| 20260508004803 | 18 | 0 | 0.0 | 0.0 | 0.00 | 0.00 | 0.00 | 59 | 1025.1 |
| 20260508004503 | 18 | 292 | 0.0 | 1.6 | 0.00 | 0.00 | 0.00 | 60 | 1025.1 |
| 20260508004203 | 18 | 292 | 0.0 | 1.6 | 0.00 | 0.00 | 0.00 | 59 | 1025.0 |
| 20260508003903 | 18 | 292 | 0.0 | 1.6 | 0.00 | 0.00 | 0.00 | 59 | 1025.1 |
| 20260508003603 | 18 | 292 | 0.0 | 1.6 | 0.00 | 0.00 | 0.00 | 59 | 1025.0 |
| 20260508003303 | 18 | 0 | 0.0 | 0.0 | 0.00 | 0.00 | 0.00 | 59 | 1025.1 |
| 20260508003217 | 18 | 0 | 0.0 | 0.0 | 0.00 | 0.00 | 0.00 | 59 | 1025.2 |
| 20260508002704 | 18 | 292 | 0.0 | 1.6 | 0.00 | 0.00 | 0.00 | 60 | 1024.9 |
| 20260508002403 | 18 | 292 | 0.0 | 1.6 | 0.00 | 0.00 | 0.00 | 59 | 1024.8 |
| 20260508002103 | 18 | 292 | 0.0 | 1.6 | 0.00 | 0.00 | 0.00 | 59 | 1024.9 |
| 20260508002018 | 18 | 291 | 0.0 | 1.6 | 0.00 | 0.00 | 0.00 | 60 | 1025.0 |
| 20260508001504 | 18 | 291 | 0.0 | 3.2 | 0.00 | 0.00 | 0.00 | 59 | 1025.2 |
| 20260508001203 | 18 | 291 | 0.0 | 3.2 | 0.00 | 0.00 | 0.00 | 59 | 1025.1 |
| 20260508000903 | 18 | 292 | 0.0 | 1.6 | 0.00 | 0.00 | 0.00 | 60 | 1025.0 |
| 20260508000603 | 18 | 291 | 0.0 | 1.6 | 0.00 | 0.00 | 0.00 | 60 | 1025.1 |
| 20260508000305 | 18 | 290 | 0.0 | 1.6 | 0.00 | 0.00 | 0.00 | 60 | 1025.1 |
| 20260508000003 | 18 | 288 | 0.0 | 1.6 | 0.00 | 0.00 | 0.00 | 60 | 1025.1 |
| 20260507235703 | 18 | 278 | 0.0 | 1.6 | 0.00 | 0.00 | 0.00 | 60 | 1025.2 |
| 20260507235616 | 18 | 275 | 0.0 | 1.6 | 0.00 | 0.00 | 0.00 | 60 | 1025.0 |
| 20260507235103 | 18 | 260 | 0.0 | 1.6 | 0.00 | 0.00 | 0.00 | 60 | 1025.4 |
| 20260507234803 | 18 | 253 | 0.0 | 1.6 | 0.00 | 0.00 | 0.00 | 60 | 1025.3 |
| 20260507234503 | 18 | 249 | 0.0 | 1.6 | 0.00 | 0.00 | 0.00 | 60 | 1025.4 |
| 20260507234203 | 18 | 247 | 0.0 | 1.6 | 0.00 | 0.00 | 0.00 | 59 | 1025.6 |
| 20260507233903 | 18 | 251 | 0.0 | 1.6 | 0.00 | 0.00 | 0.00 | 59 | 1025.4 |
| 20260507233603 | 18 | 252 | 0.0 | 1.6 | 0.00 | 0.00 | 0.00 | 59 | 1025.7 |
| 20260507233303 | 18 | 243 | 1.6 | 3.2 | 0.00 | 0.00 | 0.00 | 58 | 1025.9 |
| 20260507233003 | 18 | 234 | 1.6 | 4.8 | 0.00 | 0.00 | 0.00 | 58 | 1026.0 |
| 20260507232703 | 18 | 238 | 1.6 | 4.8 | 0.00 | 0.00 | 0.00 | 58 | 1025.9 |
| 20260507232403 | 18 | 238 | 3.2 | 4.8 | 0.00 | 0.00 | 0.00 | 58 | 1025.8 |
| 20260507232103 | 18 | 242 | 1.6 | 4.8 | 0.00 | 0.00 | 0.00 | 58 | 1025.7 |
| 20260507231803 | 18 | 236 | 1.6 | 4.8 | 0.00 | 0.00 | 0.00 | 57 | 1025.9 |
| 20260507231718 | 18 | 233 | 1.6 | 4.8 | 0.00 | 0.00 | 0.00 | 57 | 1025.9 |
| 20260507231203 | 18 | 228 | 3.2 | 4.8 | 0.00 | 0.00 | 0.00 | 57 | 1025.9 |
| 20260507230903 | 18 | 231 | 3.2 | 6.4 | 0.00 | 0.00 | 0.00 | 57 | 1025.6 |
| 20260507230603 | 18 | 227 | 3.2 | 6.4 | 0.00 | 0.00 | 0.00 | 57 | 1025.6 |
| 20260507230517 | 18 | 227 | 3.2 | 6.4 | 0.00 | 0.00 | 0.00 | 57 | 1025.7 |
| 20260507230003 | 18 | 226 | 3.2 | 6.4 | 0.00 | 0.00 | 0.00 | 57 | 1025.7 |
| 20260507225703 | 18 | 231 | 1.6 | 6.4 | 0.00 | 0.00 | 0.00 | 57 | 1025.8 |
| 20260507225403 | 18 | 235 | 1.6 | 6.4 | 0.00 | 0.00 | 0.00 | 56 | 1025.9 |
| 20260507225318 | 18 | 238 | 1.6 | 6.4 | 0.00 | 0.00 | 0.00 | 56 | 1025.8 |
| 20260507224803 | 18 | 239 | 1.6 | 6.4 | 0.00 | 0.00 | 0.00 | 56 | 1026.0 |
| 20260507224503 | 18 | 240 | 3.2 | 6.4 | 0.00 | 0.00 | 0.00 | 55 | 1025.9 |
| 20260507224203 | 18 | 242 | 3.2 | 6.4 | 0.00 | 0.00 | 0.00 | 55 | 1026.1 |
| 20260507223903 | 18 | 239 | 3.2 | 6.4 | 0.00 | 0.00 | 0.00 | 55 | 1025.9 |
| 20260507223817 | 18 | 240 | 3.2 | 6.4 | 0.00 | 0.00 | 0.00 | 55 | 1026.1 |
| 20260507223303 | 18 | 242 | 3.2 | 6.4 | 0.00 | 0.00 | 0.00 | 54 | 1026.2 |
| 20260507223003 | 18 | 243 | 3.2 | 6.4 | 0.00 | 0.00 | 0.00 | 54 | 1026.0 |
| 20260507222703 | 19 | 245 | 3.2 | 6.4 | 0.00 | 0.00 | 0.00 | 54 | 1026.1 |
| 20260507222618 | 19 | 245 | 1.6 | 6.4 | 0.00 | 0.00 | 0.00 | 54 | 1026.0 |
| 20260507222103 | 18 | 225 | 1.6 | 4.8 | 0.00 | 0.00 | 0.00 | 53 | 1026.0 |
| 20260507221803 | 18 | 222 | 1.6 | 4.8 | 0.00 | 0.00 | 0.00 | 53 | 1026.0 |
| 20260507221503 | 18 | 217 | 1.6 | 4.8 | 0.00 | 0.00 | 0.00 | 53 | 1025.9 |
| 20260507221203 | 19 | 212 | 1.6 | 4.8 | 0.00 | 0.00 | 0.00 | 53 | 1026.3 |
| 20260507220903 | 19 | 209 | 1.6 | 4.8 | 0.00 | 0.00 | 0.00 | 53 | 1026.0 |
| 20260507220603 | 19 | 212 | 1.6 | 4.8 | 0.00 | 0.00 | 0.00 | 53 | 1026.0 |
| 20260507220303 | 19 | 220 | 1.6 | 4.8 | 0.00 | 0.00 | 0.00 | 53 | 1026.3 |
| 20260507220218 | 19 | 219 | 1.6 | 4.8 | 0.00 | 0.00 | 0.00 | 52 | 1026.2 |
| 20260507215703 | 19 | 232 | 3.2 | 6.4 | 0.00 | 0.00 | 0.00 | 52 | 1026.1 |
| 20260507215403 | 19 | 236 | 3.2 | 6.4 | 0.00 | 0.00 | 0.00 | 52 | 1026.2 |
| 20260507215317 | 19 | 236 | 3.2 | 6.4 | 0.00 | 0.00 | 0.00 | 52 | 1026.5 |
| 20260507214803 | 19 | 238 | 3.2 | 6.4 | 0.00 | 0.00 | 0.00 | 51 | 1026.5 |
| 20260507214503 | 19 | 237 | 3.2 | 9.7 | 0.00 | 0.00 | 0.00 | 51 | 1026.4 |
| 20260507214203 | 19 | 239 | 4.8 | 9.7 | 0.00 | 0.00 | 0.00 | 50 | 1026.4 |
| 20260507214117 | 19 | 240 | 3.2 | 9.7 | 0.00 | 0.00 | 0.00 | 50 | 1026.6 |
| 20260507213603 | 19 | 241 | 3.2 | 9.7 | 0.00 | 0.00 | 0.00 | 50 | 1026.6 |
| 20260507213303 | 19 | 240 | 3.2 | 6.4 | 0.00 | 0.00 | 0.00 | 49 | 1026.7 |
| 20260507213003 | 19 | 234 | 1.6 | 6.4 | 0.00 | 0.00 | 0.00 | 49 | 1026.4 |
| 20260507212703 | 19 | 231 | 1.6 | 4.8 | 0.00 | 0.00 | 0.00 | 49 | 1026.6 |
| 20260507212403 | 19 | 228 | 1.6 | 6.4 | 0.00 | 0.00 | 0.00 | 49 | 1026.4 |
| 20260507212103 | 19 | 228 | 3.2 | 6.4 | 0.00 | 0.00 | 0.00 | 49 | 1026.7 |
| 20260507211803 | 19 | 229 | 3.2 | 6.4 | 0.00 | 0.00 | 0.00 | 49 | 1026.8 |
| 20260507211717 | 19 | 227 | 3.2 | 6.4 | 0.00 | 0.00 | 0.00 | 49 | 1026.6 |
| 20260507211203 | 19 | 224 | 4.8 | 6.4 | 0.00 | 0.00 | 0.00 | 48 | 1026.7 |
| 20260507210903 | 19 | 229 | 3.2 | 6.4 | 0.00 | 0.00 | 0.00 | 48 | 1026.4 |
| 20260507210603 | 19 | 228 | 3.2 | 11.3 | 0.00 | 0.00 | 0.00 | 47 | 1026.7 |
| 20260507210303 | 19 | 221 | 3.2 | 11.3 | 0.00 | 0.00 | 0.00 | 46 | 1026.5 |
| 20260507210218 | 19 | 222 | 3.2 | 11.3 | 0.00 | 0.00 | 0.00 | 46 | 1026.8 |
| 20260507205703 | 20 | 224 | 4.8 | 12.9 | 0.00 | 0.00 | 0.00 | 45 | 1026.6 |
| 20260507205403 | 20 | 232 | 4.8 | 12.9 | 0.00 | 0.00 | 0.00 | 44 | 1026.6 |
| 20260507205103 | 20 | 232 | 4.8 | 12.9 | 0.00 | 0.00 | 0.00 | 44 | 1026.4 |
| 20260507204803 | 20 | 233 | 4.8 | 11.3 | 0.00 | 0.00 | 0.00 | 42 | 1026.3 |
| 20260507204503 | 20 | 233 | 4.8 | 11.3 | 0.00 | 0.00 | 0.00 | 42 | 1026.6 |
| 20260507204203 | 20 | 233 | 3.2 | 6.4 | 0.00 | 0.00 | 0.00 | 42 | 1026.5 |
| 20260507204118 | 20 | 236 | 3.2 | 6.4 | 0.00 | 0.00 | 0.00 | 42 | 1026.6 |
| 20260507203603 | 20 | 231 | 3.2 | 6.4 | 0.00 | 0.00 | 0.00 | 42 | 1026.5 |
| 20260507203303 | 20 | 233 | 3.2 | 6.4 | 0.00 | 0.00 | 0.00 | 42 | 1026.4 |
| 20260507203003 | 20 | 232 | 3.2 | 6.4 | 0.00 | 0.00 | 0.00 | 43 | 1026.6 |
| 20260507202703 | 20 | 236 | 3.2 | 6.4 | 0.00 | 0.00 | 0.00 | 42 | 1026.5 |
| 20260507202403 | 20 | 237 | 1.6 | 6.4 | 0.00 | 0.00 | 0.00 | 42 | 1026.5 |
| 20260507202103 | 20 | 243 | 0.0 | 3.2 | 0.00 | 0.00 | 0.00 | 42 | 1026.7 |
| 20260507201803 | 20 | 246 | 0.0 | 3.2 | 0.00 | 0.00 | 0.00 | 41 | 1026.6 |
| 20260507201716 | 20 | 247 | 0.0 | 1.6 | 0.00 | 0.00 | 0.00 | 42 | 1026.3 |
| 20260507201203 | 20 | 244 | 0.0 | 1.6 | 0.00 | 0.00 | 0.00 | 42 | 1026.6 |
| 20260507201118 | 20 | 248 | 0.0 | 3.2 | 0.00 | 0.00 | 0.00 | 42 | 1026.5 |
| 20260507200603 | 20 | 244 | 0.0 | 3.2 | 0.00 | 0.00 | 0.00 | 42 | 1026.6 |
| 20260507200303 | 20 | 243 | 1.6 | 3.2 | 0.00 | 0.00 | 0.00 | 42 | 1026.6 |
| 20260507200003 | 20 | 241 | 1.6 | 3.2 | 0.00 | 0.00 | 0.00 | 42 | 1026.4 |
| 20260507195703 | 20 | 240 | 1.6 | 3.2 | 0.00 | 0.00 | 0.00 | 42 | 1026.3 |
| 20260507195403 | 20 | 236 | 1.6 | 4.8 | 0.00 | 0.00 | 0.00 | 42 | 1026.3 |
| 20260507195103 | 20 | 235 | 1.6 | 4.8 | 0.00 | 0.00 | 0.00 | 42 | 1026.4 |
| 20260507195017 | 20 | 235 | 1.6 | 4.8 | 0.00 | 0.00 | 0.00 | 42 | 1026.5 |
| 20260507194503 | 20 | 235 | 3.2 | 4.8 | 0.00 | 0.00 | 0.00 | 41 | 1026.3 |
| 20260507194203 | 20 | 233 | 3.2 | 4.8 | 0.00 | 0.00 | 0.00 | 41 | 1026.1 |
| 20260507193903 | 20 | 234 | 3.2 | 4.8 | 0.00 | 0.00 | 0.00 | 40 | 1026.3 |
| 20260507193603 | 20 | 233 | 3.2 | 4.8 | 0.00 | 0.00 | 0.00 | 40 | 1026.2 |
| 20260507193303 | 20 | 230 | 3.2 | 4.8 | 0.00 | 0.00 | 0.00 | 39 | 1026.3 |
| 20260507193003 | 20 | 233 | 1.6 | 4.8 | 0.00 | 0.00 | 0.00 | 39 | 1026.2 |
| 20260507192703 | 20 | 237 | 1.6 | 4.8 | 0.00 | 0.00 | 0.00 | 39 | 1026.3 |
| 20260507192403 | 20 | 245 | 1.6 | 3.2 | 0.00 | 0.00 | 0.00 | 39 | 1026.2 |
| 20260507192103 | 20 | 243 | 0.0 | 3.2 | 0.00 | 0.00 | 0.00 | 40 | 1026.2 |
| 20260507191803 | 20 | 244 | 0.0 | 1.6 | 0.00 | 0.00 | 0.00 | 40 | 1026.3 |
| 20260507191503 | 20 | 244 | 0.0 | 3.2 | 0.00 | 0.00 | 0.00 | 40 | 1026.4 |
| 20260507191203 | 20 | 244 | 0.0 | 3.2 | 0.00 | 0.00 | 0.00 | 40 | 1026.2 |
| 20260507190903 | 20 | 244 | 0.0 | 3.2 | 0.00 | 0.00 | 0.00 | 40 | 1026.2 |
| 20260507190603 | 20 | 244 | 0.0 | 3.2 | 0.00 | 0.00 | 0.00 | 40 | 1026.1 |
| 20260507190303 | 20 | 244 | 0.0 | 1.6 | 0.00 | 0.00 | 0.00 | 40 | 1026.1 |
| 20260507190217 | 20 | 244 | 0.0 | 1.6 | 0.00 | 0.00 | 0.00 | 40 | 1026.2 |
| 20260507185703 | 20 | 243 | 1.6 | 4.8 | 0.00 | 0.00 | 0.00 | 40 | 1026.2 |
| 20260507185403 | 20 | 246 | 1.6 | 4.8 | 0.00 | 0.00 | 0.00 | 40 | 1026.1 |
| 20260507185103 | 20 | 238 | 3.2 | 6.4 | 0.00 | 0.00 | 0.00 | 40 | 1026.1 |
| 20260507185018 | 20 | 237 | 3.2 | 6.4 | 0.00 | 0.00 | 0.00 | 40 | 1026.2 |
| 20260507184504 | 20 | 226 | 1.6 | 6.4 | 0.00 | 0.00 | 0.00 | 40 | 1026.0 |
| 20260507184203 | 20 | 227 | 1.6 | 3.2 | 0.00 | 0.00 | 0.00 | 39 | 1026.1 |
| 20260507184119 | 20 | 228 | 1.6 | 3.2 | 0.00 | 0.00 | 0.00 | 39 | 1026.2 |
| 20260507183603 | 20 | 237 | 1.6 | 4.8 | 0.00 | 0.00 | 0.00 | 39 | 1026.1 |
| 20260507183303 | 20 | 227 | 3.2 | 6.4 | 0.00 | 0.00 | 0.00 | 39 | 1026.2 |
| 20260507183003 | 20 | 229 | 3.2 | 9.7 | 0.00 | 0.00 | 0.00 | 39 | 1026.0 |
| 20260507182703 | 20 | 232 | 4.8 | 9.7 | 0.00 | 0.00 | 0.00 | 39 | 1026.2 |
| 20260507182403 | 20 | 234 | 3.2 | 9.7 | 0.00 | 0.00 | 0.00 | 39 | 1025.9 |
| 20260507182103 | 20 | 238 | 3.2 | 9.7 | 0.00 | 0.00 | 0.00 | 39 | 1026.1 |
| 20260507181803 | 20 | 222 | 3.2 | 6.4 | 0.00 | 0.00 | 0.00 | 39 | 1026.2 |
| 20260507181718 | 20 | 215 | 1.6 | 4.8 | 0.00 | 0.00 | 0.00 | 40 | 1026.1 |
| 20260507181203 | 20 | 187 | 3.2 | 4.8 | 0.00 | 0.00 | 0.00 | 39 | 1026.0 |
| 20260507181117 | 20 | 179 | 1.6 | 4.8 | 0.00 | 0.00 | 0.00 | 40 | 1026.0 |
| 20260507180603 | 20 | 220 | 3.2 | 6.4 | 0.00 | 0.00 | 0.00 | 39 | 1026.3 |
| 20260507180304 | 20 | 233 | 3.2 | 6.4 | 0.00 | 0.00 | 0.00 | 40 | 1026.1 |
| 20260507180003 | 20 | 237 | 3.2 | 6.4 | 0.00 | 0.00 | 0.00 | 40 | 1026.1 |
| 20260507175703 | 20 | 237 | 3.2 | 6.4 | 0.00 | 0.00 | 0.00 | 40 | 1026.1 |
| 20260507175403 | 20 | 236 | 3.2 | 9.7 | 0.00 | 0.00 | 0.00 | 40 | 1026.1 |
| 20260507175103 | 20 | 234 | 4.8 | 14.5 | 0.00 | 0.00 | 0.00 | 40 | 1026.0 |
| 20260507174803 | 20 | 231 | 4.8 | 14.5 | 0.00 | 0.00 | 0.00 | 41 | 1025.9 |
| 20260507174503 | 20 | 226 | 4.8 | 14.5 | 0.00 | 0.00 | 0.00 | 41 | 1025.8 |
| 20260507174203 | 20 | 228 | 3.2 | 9.7 | 0.00 | 0.00 | 0.00 | 41 | 1026.0 |
| 20260507173903 | 20 | 233 | 3.2 | 6.4 | 0.00 | 0.00 | 0.00 | 42 | 1025.9 |
| 20260507173603 | 20 | 234 | 1.6 | 6.4 | 0.00 | 0.00 | 0.00 | 43 | 1025.7 |
| 20260507173303 | 20 | 226 | 3.2 | 9.7 | 0.00 | 0.00 | 0.00 | 43 | 1025.9 |
| 20260507173216 | 20 | 226 | 3.2 | 12.9 | 0.00 | 0.00 | 0.00 | 43 | 1026.0 |
| 20260507172918 | 21 | 231 | 4.8 | 14.5 | 0.00 | 0.00 | 0.00 | 42 | 1025.9 |
| 20260507172403 | 21 | 237 | 8.0 | 16.1 | 0.00 | 0.00 | 0.00 | 40 | 1026.0 |
| 20260507172103 | 21 | 242 | 8.0 | 16.1 | 0.00 | 0.00 | 0.00 | 39 | 1026.0 |
| 20260507172018 | 21 | 243 | 8.0 | 16.1 | 0.00 | 0.00 | 0.00 | 39 | 1026.0 |
| 20260507171503 | 21 | 243 | 6.4 | 12.9 | 0.00 | 0.00 | 0.00 | 39 | 1026.0 |
| 20260507171203 | 21 | 240 | 6.4 | 12.9 | 0.00 | 0.00 | 0.00 | 38 | 1025.9 |
| 20260507170903 | 21 | 242 | 6.4 | 12.9 | 0.00 | 0.00 | 0.00 | 38 | 1025.9 |
| 20260507170817 | 21 | 242 | 6.4 | 12.9 | 0.00 | 0.00 | 0.00 | 38 | 1025.8 |
| 20260507170303 | 21 | 243 | 4.8 | 12.9 | 0.00 | 0.00 | 0.00 | 39 | 1025.7 |
| 20260507170003 | 21 | 240 | 3.2 | 12.9 | 0.00 | 0.00 | 0.00 | 38 | 1025.4 |
| 20260507165703 | 21 | 240 | 3.2 | 11.3 | 0.00 | 0.00 | 0.00 | 38 | 1025.3 |
| 20260507165404 | 21 | 242 | 3.2 | 11.3 | 0.00 | 0.00 | 0.00 | 38 | 1025.5 |
| 20260507165103 | 21 | 237 | 3.2 | 11.3 | 0.00 | 0.00 | 0.00 | 38 | 1025.5 |
| 20260507164803 | 21 | 236 | 3.2 | 11.3 | 0.00 | 0.00 | 0.00 | 37 | 1025.3 |
| 20260507164717 | 21 | 237 | 3.2 | 9.7 | 0.00 | 0.00 | 0.00 | 39 | 1025.3 |
| 20260507164203 | 21 | 235 | 3.2 | 9.7 | 0.00 | 0.00 | 0.00 | 41 | 1025.3 |
| 20260507163903 | 21 | 227 | 3.2 | 9.7 | 0.00 | 0.00 | 0.00 | 41 | 1025.3 |
| 20260507163603 | 21 | 221 | 4.8 | 9.7 | 0.00 | 0.00 | 0.00 | 39 | 1025.3 |
| 20260507163303 | 21 | 223 | 4.8 | 9.7 | 0.00 | 0.00 | 0.00 | 40 | 1025.2 |
| 20260507163218 | 21 | 226 | 4.8 | 9.7 | 0.00 | 0.00 | 0.00 | 39 | 1025.2 |
| 20260507162703 | 21 | 233 | 4.8 | 9.7 | 0.00 | 0.00 | 0.00 | 43 | 1025.5 |
| 20260507162403 | 21 | 239 | 4.8 | 6.4 | 0.00 | 0.00 | 0.00 | 42 | 1025.6 |
| 20260507162103 | 21 | 239 | 4.8 | 9.7 | 0.00 | 0.00 | 0.00 | 42 | 1025.5 |
| 20260507161803 | 21 | 241 | 4.8 | 9.7 | 0.00 | 0.00 | 0.00 | 39 | 1025.5 |
| 20260507161717 | 21 | 242 | 4.8 | 9.7 | 0.00 | 0.00 | 0.00 | 38 | 1025.5 |
| 20260507161203 | 21 | 241 | 4.8 | 11.3 | 0.00 | 0.00 | 0.00 | 41 | 1025.5 |
| 20260507161116 | 21 | 240 | 4.8 | 11.3 | 0.00 | 0.00 | 0.00 | 41 | 1025.5 |
| 20260507160603 | 22 | 238 | 4.8 | 11.3 | 0.00 | 0.00 | 0.00 | 41 | 1025.4 |
| 20260507160518 | 22 | 238 | 4.8 | 11.3 | 0.00 | 0.00 | 0.00 | 41 | 1025.4 |
| 20260507160004 | 22 | 234 | 4.8 | 9.7 | 0.00 | 0.00 | 0.00 | 38 | 1025.4 |
| 20260507155703 | 22 | 236 | 4.8 | 9.7 | 0.00 | 0.00 | 0.00 | 38 | 1025.5 |
| 20260507155403 | 22 | 236 | 3.2 | 6.4 | 0.00 | 0.00 | 0.00 | 38 | 1025.5 |
| 20260507155103 | 22 | 234 | 3.2 | 4.8 | 0.00 | 0.00 | 0.00 | 37 | 1025.3 |
| 20260507154803 | 22 | 232 | 3.2 | 4.8 | 0.00 | 0.00 | 0.00 | 39 | 1025.5 |
| 20260507154503 | 22 | 239 | 3.2 | 6.4 | 0.00 | 0.00 | 0.00 | 39 | 1025.5 |
| 20260507154203 | 21 | 244 | 3.2 | 9.7 | 0.00 | 0.00 | 0.00 | 40 | 1025.5 |
| 20260507153903 | 22 | 242 | 4.8 | 9.7 | 0.00 | 0.00 | 0.00 | 40 | 1025.4 |
| 20260507153603 | 21 | 237 | 4.8 | 9.7 | 0.00 | 0.00 | 0.00 | 40 | 1025.6 |
| 20260507153303 | 22 | 236 | 4.8 | 12.9 | 0.00 | 0.00 | 0.00 | 40 | 1025.7 |
| 20260507153003 | 22 | 235 | 4.8 | 12.9 | 0.00 | 0.00 | 0.00 | 40 | 1025.8 |
| 20260507152917 | 22 | 235 | 4.8 | 12.9 | 0.00 | 0.00 | 0.00 | 40 | 1026.1 |
| 20260507152403 | 22 | 238 | 6.4 | 16.1 | 0.00 | 0.00 | 0.00 | 41 | 1025.8 |
| 20260507152103 | 22 | 240 | 4.8 | 16.1 | 0.00 | 0.00 | 0.00 | 40 | 1025.9 |
| 20260507151803 | 22 | 239 | 3.2 | 12.9 | 0.00 | 0.00 | 0.00 | 39 | 1026.1 |
| 20260507151503 | 22 | 241 | 3.2 | 9.7 | 0.00 | 0.00 | 0.00 | 39 | 1025.9 |
| 20260507151203 | 22 | 243 | 3.2 | 12.9 | 0.00 | 0.00 | 0.00 | 39 | 1025.9 |
| 20260507150903 | 22 | 242 | 3.2 | 12.9 | 0.00 | 0.00 | 0.00 | 38 | 1025.9 |
| 20260507150603 | 22 | 242 | 4.8 | 12.9 | 0.00 | 0.00 | 0.00 | 38 | 1025.8 |
| 20260507150303 | 22 | 238 | 4.8 | 12.9 | 0.00 | 0.00 | 0.00 | 38 | 1026.0 |
| 20260507150003 | 22 | 234 | 4.8 | 12.9 | 0.00 | 0.00 | 0.00 | 37 | 1025.7 |
| 20260507145703 | 22 | 234 | 6.4 | 16.1 | 0.00 | 0.00 | 0.00 | 38 | 1025.7 |
| 20260507145403 | 22 | 240 | 8.0 | 16.1 | 0.00 | 0.00 | 0.00 | 38 | 1025.8 |
| 20260507145317 | 22 | 240 | 8.0 | 16.1 | 0.00 | 0.00 | 0.00 | 38 | 1025.9 |
| 20260507145017 | 22 | 241 | 9.7 | 17.7 | 0.00 | 0.00 | 0.00 | 35 | 1025.8 |
| 20260507144503 | 22 | 237 | 9.7 | 17.7 | 0.00 | 0.00 | 0.00 | 33 | 1025.7 |
| 20260507144203 | 22 | 234 | 9.7 | 20.9 | 0.00 | 0.00 | 0.00 | 33 | 1025.8 |
| 20260507143903 | 22 | 238 | 9.7 | 22.5 | 0.00 | 0.00 | 0.00 | 32 | 1025.9 |
| 20260507143603 | 22 | 240 | 9.7 | 22.5 | 0.00 | 0.00 | 0.00 | 33 | 1025.9 |
| 20260507143303 | 22 | 244 | 11.3 | 22.5 | 0.00 | 0.00 | 0.00 | 33 | 1025.7 |
| 20260507143003 | 22 | 238 | 11.3 | 20.9 | 0.00 | 0.00 | 0.00 | 33 | 1025.9 |
| 20260507142703 | 22 | 236 | 11.3 | 20.9 | 0.00 | 0.00 | 0.00 | 34 | 1025.9 |
| 20260507142403 | 22 | 234 | 11.3 | 22.5 | 0.00 | 0.00 | 0.00 | 31 | 1025.9 |
| 20260507142103 | 22 | 229 | 11.3 | 22.5 | 0.00 | 0.00 | 0.00 | 31 | 1025.7 |
| 20260507141803 | 22 | 227 | 11.3 | 22.5 | 0.00 | 0.00 | 0.00 | 28 | 1025.8 |
| 20260507141503 | 23 | 224 | 9.7 | 20.9 | 0.00 | 0.00 | 0.00 | 26 | 1025.8 |
| 20260507141418 | 23 | 221 | 9.7 | 20.9 | 0.00 | 0.00 | 0.00 | 26 | 1025.8 |
| 20260507140903 | 23 | 227 | 9.7 | 17.7 | 0.00 | 0.00 | 0.00 | 25 | 1026.0 |
| 20260507140603 | 23 | 222 | 8.0 | 17.7 | 0.00 | 0.00 | 0.00 | 28 | 1025.8 |
| 20260507140517 | 23 | 219 | 8.0 | 17.7 | 0.00 | 0.00 | 0.00 | 27 | 1025.7 |
| 20260507140217 | 23 | 226 | 8.0 | 16.1 | 0.00 | 0.00 | 0.00 | 26 | 1025.5 |
| 20260507135703 | 23 | 235 | 8.0 | 16.1 | 0.00 | 0.00 | 0.00 | 27 | 1025.1 |
| 20260507135403 | 23 | 232 | 8.0 | 20.9 | 0.00 | 0.00 | 0.00 | 27 | 1025.4 |
| 20260507135103 | 23 | 235 | 9.7 | 25.7 | 0.00 | 0.00 | 0.00 | 26 | 1025.6 |
| 20260507134803 | 23 | 237 | 9.7 | 25.7 | 0.00 | 0.00 | 0.00 | 25 | 1025.4 |
| 20260507134503 | 23 | 239 | 11.3 | 25.7 | 0.00 | 0.00 | 0.00 | 26 | 1025.3 |
| 20260507134203 | 23 | 236 | 11.3 | 25.7 | 0.00 | 0.00 | 0.00 | 25 | 1025.3 |
| 20260507133903 | 23 | 235 | 11.3 | 20.9 | 0.00 | 0.00 | 0.00 | 26 | 1025.4 |
| 20260507133603 | 23 | 239 | 9.7 | 17.7 | 0.00 | 0.00 | 0.00 | 27 | 1025.1 |
| 20260507133303 | 23 | 237 | 9.7 | 17.7 | 0.00 | 0.00 | 0.00 | 28 | 1025.3 |
| 20260507133217 | 23 | 238 | 9.7 | 17.7 | 0.00 | 0.00 | 0.00 | 28 | 1025.1 |
| 20260507132703 | 23 | 224 | 8.0 | 20.9 | 0.00 | 0.00 | 0.00 | 28 | 1025.2 |
| 20260507132403 | 23 | 232 | 9.7 | 20.9 | 0.00 | 0.00 | 0.00 | 28 | 1025.4 |
| 20260507132103 | 23 | 237 | 9.7 | 20.9 | 0.00 | 0.00 | 0.00 | 29 | 1025.5 |
| 20260507131803 | 23 | 240 | 9.7 | 20.9 | 0.00 | 0.00 | 0.00 | 29 | 1025.3 |
| 20260507131503 | 23 | 244 | 8.0 | 20.9 | 0.00 | 0.00 | 0.00 | 28 | 1025.3 |
| 20260507131417 | 23 | 244 | 8.0 | 20.9 | 0.00 | 0.00 | 0.00 | 28 | 1025.3 |
| 20260507130903 | 23 | 248 | 8.0 | 20.9 | 0.00 | 0.00 | 0.00 | 29 | 1025.5 |
| 20260507130603 | 22 | 244 | 9.7 | 20.9 | 0.00 | 0.00 | 0.00 | 30 | 1025.4 |
| 20260507130303 | 22 | 242 | 9.7 | 20.9 | 0.00 | 0.00 | 0.00 | 33 | 1025.4 |
| 20260507130003 | 22 | 244 | 9.7 | 22.5 | 0.00 | 0.00 | 0.00 | 36 | 1025.4 |
| 20260507125916 | 22 | 243 | 11.3 | 22.5 | 0.00 | 0.00 | 0.00 | 37 | 1025.3 |
| 20260507125403 | 22 | 239 | 11.3 | 22.5 | 0.00 | 0.00 | 0.00 | 39 | 1025.7 |
| 20260507125103 | 22 | 235 | 9.7 | 22.5 | 0.00 | 0.00 | 0.00 | 39 | 1025.7 |
| 20260507124803 | 22 | 231 | 9.7 | 16.1 | 0.00 | 0.00 | 0.00 | 39 | 1025.7 |
| 20260507124503 | 22 | 232 | 9.7 | 16.1 | 0.00 | 0.00 | 0.00 | 39 | 1025.6 |
| 20260507124203 | 22 | 226 | 9.7 | 17.7 | 0.00 | 0.00 | 0.00 | 40 | 1025.8 |
| 20260507123903 | 22 | 231 | 9.7 | 17.7 | 0.00 | 0.00 | 0.00 | 40 | 1025.8 |
| 20260507123817 | 22 | 232 | 9.7 | 17.7 | 0.00 | 0.00 | 0.00 | 40 | 1025.7 |
| 20260507123303 | 22 | 235 | 8.0 | 16.1 | 0.00 | 0.00 | 0.00 | 39 | 1025.9 |
| 20260507123003 | 22 | 236 | 8.0 | 16.1 | 0.00 | 0.00 | 0.00 | 39 | 1025.8 |
| 20260507122705 | 22 | 243 | 9.7 | 22.5 | 0.00 | 0.00 | 0.00 | 39 | 1025.7 |
| 20260507122403 | 22 | 248 | 8.0 | 22.5 | 0.00 | 0.00 | 0.00 | 40 | 1026.0 |
| 20260507122103 | 22 | 243 | 8.0 | 22.5 | 0.00 | 0.00 | 0.00 | 39 | 1026.0 |
| 20260507122018 | 22 | 243 | 8.0 | 22.5 | 0.00 | 0.00 | 0.00 | 39 | 1026.1 |
| 20260507121504 | 22 | 228 | 8.0 | 16.1 | 0.00 | 0.00 | 0.00 | 36 | 1026.0 |
| 20260507121203 | 22 | 229 | 8.0 | 16.1 | 0.00 | 0.00 | 0.00 | 35 | 1026.0 |
| 20260507121117 | 22 | 227 | 8.0 | 16.1 | 0.00 | 0.00 | 0.00 | 34 | 1025.9 |
| 20260507120603 | 22 | 225 | 8.0 | 14.5 | 0.00 | 0.00 | 0.00 | 40 | 1026.1 |
| 20260507120303 | 22 | 227 | 8.0 | 14.5 | 0.00 | 0.00 | 0.00 | 41 | 1026.0 |
| 20260507120003 | 22 | 232 | 8.0 | 14.5 | 0.00 | 0.00 | 0.00 | 44 | 1026.0 |
| 20260507115703 | 22 | 237 | 9.7 | 14.5 | 0.00 | 0.00 | 0.00 | 44 | 1026.1 |
| 20260507115403 | 22 | 237 | 8.0 | 14.5 | 0.00 | 0.00 | 0.00 | 49 | 1026.1 |
| 20260507115103 | 22 | 236 | 8.0 | 16.1 | 0.00 | 0.00 | 0.00 | 47 | 1026.1 |
| 20260507114803 | 22 | 229 | 8.0 | 16.1 | 0.00 | 0.00 | 0.00 | 49 | 1026.0 |
| 20260507114503 | 21 | 228 | 8.0 | 16.1 | 0.00 | 0.00 | 0.00 | 48 | 1026.0 |
| 20260507114203 | 22 | 227 | 9.7 | 16.1 | 0.00 | 0.00 | 0.00 | 48 | 1026.2 |
| 20260507113903 | 22 | 233 | 9.7 | 16.1 | 0.00 | 0.00 | 0.00 | 48 | 1026.2 |
| 20260507113816 | 22 | 233 | 9.7 | 16.1 | 0.00 | 0.00 | 0.00 | 48 | 1026.3 |
| 20260507113303 | 22 | 245 | 9.7 | 24.1 | 0.00 | 0.00 | 0.00 | 46 | 1026.1 |
| 20260507113003 | 21 | 242 | 9.7 | 24.1 | 0.00 | 0.00 | 0.00 | 47 | 1026.3 |
| 20260507112918 | 21 | 242 | 9.7 | 24.1 | 0.00 | 0.00 | 0.00 | 48 | 1025.9 |
| 20260507112618 | 21 | 234 | 9.7 | 16.1 | 0.00 | 0.00 | 0.00 | 48 | 1026.4 |
| 20260507112103 | 22 | 232 | 9.7 | 16.1 | 0.00 | 0.00 | 0.00 | 48 | 1026.3 |
| 20260507111803 | 22 | 233 | 9.7 | 20.9 | 0.00 | 0.00 | 0.00 | 45 | 1026.4 |
| 20260507111503 | 22 | 230 | 11.3 | 29.0 | 0.00 | 0.00 | 0.00 | 47 | 1026.5 |
| 20260507111203 | 22 | 234 | 12.9 | 29.0 | 0.00 | 0.00 | 0.00 | 44 | 1026.4 |
| 20260507110903 | 22 | 238 | 12.9 | 29.0 | 0.00 | 0.00 | 0.00 | 45 | 1026.5 |
| 20260507110819 | 22 | 237 | 12.9 | 29.0 | 0.00 | 0.00 | 0.00 | 44 | 1026.2 |
| 20260507110303 | 22 | 240 | 11.3 | 25.7 | 0.00 | 0.00 | 0.00 | 42 | 1026.2 |
| 20260507110003 | 22 | 238 | 12.9 | 25.7 | 0.00 | 0.00 | 0.00 | 47 | 1026.1 |
| 20260507105703 | 21 | 239 | 12.9 | 24.1 | 0.00 | 0.00 | 0.00 | 50 | 1026.1 |
| 20260507105403 | 21 | 236 | 14.5 | 24.1 | 0.00 | 0.00 | 0.00 | 52 | 1026.0 |
| 20260507105103 | 22 | 239 | 14.5 | 25.7 | 0.00 | 0.00 | 0.00 | 50 | 1026.3 |
| 20260507104803 | 22 | 236 | 14.5 | 25.7 | 0.00 | 0.00 | 0.00 | 50 | 1026.2 |
| 20260507104719 | 22 | 234 | 12.9 | 25.7 | 0.00 | 0.00 | 0.00 | 50 | 1026.3 |
| 20260507104203 | 22 | 233 | 11.3 | 24.1 | 0.00 | 0.00 | 0.00 | 51 | 1026.4 |
| 20260507103903 | 22 | 233 | 11.3 | 24.1 | 0.00 | 0.00 | 0.00 | 50 | 1026.3 |
| 20260507103603 | 22 | 237 | 9.7 | 24.1 | 0.00 | 0.00 | 0.00 | 52 | 1026.2 |
| 20260507103518 | 22 | 237 | 9.7 | 24.1 | 0.00 | 0.00 | 0.00 | 52 | 1026.1 |
| 20260507103003 | 22 | 229 | 9.7 | 20.9 | 0.00 | 0.00 | 0.00 | 53 | 1025.9 |
| 20260507102703 | 22 | 228 | 9.7 | 20.9 | 0.00 | 0.00 | 0.00 | 52 | 1025.8 |
| 20260507102617 | 22 | 227 | 9.7 | 16.1 | 0.00 | 0.00 | 0.00 | 52 | 1025.7 |
| 20260507102103 | 22 | 227 | 8.0 | 16.1 | 0.00 | 0.00 | 0.00 | 53 | 1025.6 |
| 20260507102017 | 22 | 226 | 8.0 | 16.1 | 0.00 | 0.00 | 0.00 | 53 | 1025.6 |
| 20260507101503 | 22 | 230 | 8.0 | 14.5 | 0.00 | 0.00 | 0.00 | 53 | 1025.3 |
| 20260507101203 | 22 | 234 | 8.0 | 14.5 | 0.00 | 0.00 | 0.00 | 55 | 1025.5 |
| 20260507100903 | 22 | 233 | 8.0 | 16.1 | 0.00 | 0.00 | 0.00 | 55 | 1025.8 |
| 20260507100603 | 22 | 225 | 6.4 | 16.1 | 0.00 | 0.00 | 0.00 | 54 | 1025.8 |
| 20260507100303 | 22 | 219 | 8.0 | 16.1 | 0.00 | 0.00 | 0.00 | 54 | 1025.8 |
| 20260507100217 | 21 | 221 | 8.0 | 17.7 | 0.00 | 0.00 | 0.00 | 54 | 1025.9 |
| 20260507095703 | 21 | 231 | 9.7 | 20.9 | 0.00 | 0.00 | 0.00 | 55 | 1025.9 |
| 20260507095403 | 22 | 237 | 9.7 | 20.9 | 0.00 | 0.00 | 0.00 | 54 | 1026.2 |
| 20260507095103 | 22 | 231 | 8.0 | 14.5 | 0.00 | 0.00 | 0.00 | 53 | 1026.0 |
| 20260507094803 | 22 | 229 | 8.0 | 14.5 | 0.00 | 0.00 | 0.00 | 52 | 1026.0 |
| 20260507094503 | 22 | 228 | 8.0 | 14.5 | 0.00 | 0.00 | 0.00 | 52 | 1025.9 |
| 20260507094203 | 22 | 227 | 8.0 | 14.5 | 0.00 | 0.00 | 0.00 | 50 | 1025.8 |
| 20260507093903 | 22 | 225 | 8.0 | 14.5 | 0.00 | 0.00 | 0.00 | 50 | 1025.9 |
| 20260507093603 | 22 | 208 | 6.4 | 14.5 | 0.00 | 0.00 | 0.00 | 48 | 1025.8 |
| 20260507093303 | 22 | 208 | 6.4 | 14.5 | 0.00 | 0.00 | 0.00 | 47 | 1025.8 |
| 20260507093003 | 22 | 201 | 6.4 | 12.9 | 0.00 | 0.00 | 0.00 | 45 | 1025.8 |
| 20260507092703 | 23 | 212 | 6.4 | 12.9 | 0.00 | 0.00 | 0.00 | 45 | 1025.8 |
| 20260507092403 | 23 | 228 | 6.4 | 17.7 | 0.00 | 0.00 | 0.00 | 44 | 1026.0 |
| 20260507092103 | 22 | 238 | 6.4 | 17.7 | 0.00 | 0.00 | 0.00 | 43 | 1025.7 |
| 20260507092017 | 22 | 240 | 6.4 | 17.7 | 0.00 | 0.00 | 0.00 | 42 | 1025.9 |
| 20260507091718 | 22 | 240 | 6.4 | 17.7 | 0.00 | 0.00 | 0.00 | 42 | 1025.8 |
| 20260507091203 | 22 | 237 | 6.4 | 14.5 | 0.00 | 0.00 | 0.00 | 42 | 1025.9 |
| 20260507090903 | 22 | 237 | 8.0 | 14.5 | 0.00 | 0.00 | 0.00 | 42 | 1025.9 |
| 20260507090603 | 22 | 238 | 6.4 | 14.5 | 0.00 | 0.00 | 0.00 | 39 | 1025.5 |
| 20260507090303 | 22 | 232 | 6.4 | 14.5 | 0.00 | 0.00 | 0.00 | 41 | 1025.9 |
| 20260507090217 | 22 | 229 | 6.4 | 14.5 | 0.00 | 0.00 | 0.00 | 41 | 1025.9 |
| 20260507085917 | 22 | 220 | 4.8 | 12.9 | 0.00 | 0.00 | 0.00 | 40 | 1025.7 |
| 20260507085403 | 22 | 200 | 3.2 | 9.7 | 0.00 | 0.00 | 0.00 | 40 | 1025.5 |
| 20260507085103 | 22 | 195 | 3.2 | 9.7 | 0.00 | 0.00 | 0.00 | 40 | 1025.5 |
| 20260507084803 | 22 | 201 | 4.8 | 9.7 | 0.00 | 0.00 | 0.00 | 40 | 1025.6 |
| 20260507084503 | 22 | 204 | 4.8 | 9.7 | 0.00 | 0.00 | 0.00 | 40 | 1025.9 |
| 20260507084203 | 22 | 206 | 4.8 | 9.7 | 0.00 | 0.00 | 0.00 | 40 | 1025.7 |
| 20260507083903 | 22 | 207 | 4.8 | 9.7 | 0.00 | 0.00 | 0.00 | 39 | 1026.0 |
| 20260507083603 | 22 | 197 | 4.8 | 9.7 | 0.00 | 0.00 | 0.00 | 39 | 1025.8 |
| 20260507083303 | 22 | 206 | 4.8 | 11.3 | 0.00 | 0.00 | 0.00 | 40 | 1026.0 |
| 20260507083003 | 21 | 206 | 4.8 | 11.3 | 0.00 | 0.00 | 0.00 | 40 | 1025.8 |
| 20260507082703 | 21 | 200 | 4.8 | 11.3 | 0.00 | 0.00 | 0.00 | 41 | 1025.7 |
| 20260507082403 | 22 | 216 | 6.4 | 11.3 | 0.00 | 0.00 | 0.00 | 41 | 1025.7 |
| 20260507082316 | 22 | 216 | 6.4 | 11.3 | 0.00 | 0.00 | 0.00 | 41 | 1025.8 |
| 20260507081803 | 22 | 229 | 4.8 | 11.3 | 0.00 | 0.00 | 0.00 | 42 | 1025.6 |
| 20260507081503 | 22 | 226 | 4.8 | 9.7 | 0.00 | 0.00 | 0.00 | 41 | 1025.5 |
| 20260507081203 | 21 | 226 | 4.8 | 11.3 | 0.00 | 0.00 | 0.00 | 41 | 1025.6 |
| 20260507080903 | 21 | 223 | 4.8 | 11.3 | 0.00 | 0.00 | 0.00 | 42 | 1025.4 |
| 20260507080817 | 21 | 221 | 4.8 | 11.3 | 0.00 | 0.00 | 0.00 | 42 | 1025.7 |
| 20260507080303 | 21 | 212 | 4.8 | 11.3 | 0.00 | 0.00 | 0.00 | 41 | 1025.7 |
| 20260507080003 | 22 | 211 | 4.8 | 11.3 | 0.00 | 0.00 | 0.00 | 41 | 1025.8 |
| 20260507075703 | 21 | 214 | 4.8 | 9.7 | 0.00 | 0.00 | 0.00 | 40 | 1025.8 |
| 20260507075616 | 21 | 218 | 4.8 | 9.7 | 0.00 | 0.00 | 0.00 | 40 | 1025.6 |